Showing default

YAM-7, 60504

Orbit data source: Space-Track

YAM-7, 60504 is an American payload satellite in SSO that was launched on Fri, 16 Aug 2024 UTC via an FALCON 9 launch vehicle from the Air Force Western Test Range (AFWTR). Payload-class satellites include a variety of spacecraft equipped with specific instruments for various scientific and technological missions. These include communications satellites like Starlink; space stations such as the ISS; scientific satellites like the Hubble; Earth observation satellites from companies like Planet Labs, Umbra, and HawkEye 360; GPS; miniature CubeSats for education and research; and military/defense satellites.

Loading next visibility...
Identifier
60504, 2024-149AN
Orbit
SSO
Country
Flag of USUS
Related business
Manufacturer
LeoStella
Mission
Operational Commercial Technology
Bus & Motor
YAM, Unknown motor
Mass
91 kg wet, 91 kg dry
Launch date (UTC)
2024-08-16 (1 year ago)
Launch vehicle
FALCON 9
Launch site
Air Force Western Test Range (AFWTR)
Object type
Payload
Rocket body
Debris
Shape & HBR
Box, 1.0 m
Radar Cross Section
0.875 m², Medium (>0.1 m² and < 1m²)

Expand to show TLE details & history
Last TLE update: 11 hours ago

TLE from 11 hours ago
0 YAM-7
1 60504U 24149AN  25291.16817977  .00011960  00000-0  44944-3 0  9995
2 60504  97.4027   7.8443 0005111  80.6734 279.5083 15.27309353 65056
Epoch: 2025-10-18T04:02Z
TLE epoch observation values (Epoch: 2025-10-18T04:02:10.732Z)
Latitude
0.00001°
Longitude
-79.60349°
Altitude
486.382 km
Speed
7.622 km/s
True Right ascension
00h 31m 22s
True Declination
0° 00' 00"
Sunlit
Object was in full shadow at epoch
Visualization orbit readout
Latitude
Unknown
Longitude
Unknown
Altitude
Unknown
Speed
Unknown
Apparent Right ascension
Unknown
Apparent Declination
Unknown
Sunlit
N/A
Visualization observer readout
Local Sidereal Time
10:13:56
Azimuth
Unknown
Elevation
Unknown
Doppler factor
Unknown
Orbital elements
Apogee altitude
484.321 km
Perigee altitude
477.31 km
Semi-major axis
6,858.953 km
Eccentricity
0.00051
Inclination
97.4027°
RAAN
7.8443°
Arg. of periapsis
80.6734°
True anomaly
279.45053°
Mean anomaly
279.5083°
Eccentric anomaly
279.47942°
Mean motion
3.82082 °/min
Orbital period
94.22 mins
BSTAR
0.00044944
Loading maneuver chart data...
Computing Atmospheric mass density...
Loading historical data...
Loading historical data...
Loading historical data...
Loading historical data...
Loading historical data...
Loading historical data...
Loading historical data...

Documentation

Showing up to 5 results
|